#timestamp,LO_Frequency,Hit,StdDev 
1543287615.1,286046998.2,P
1543287635.9,286047000.0,N
1543287655.7,286046999.8,N
1543287675.6,286046999.0,N
1543287695.4,286046995.6,N
1543287715.2,286046997.5,N
1543287735.1,286046998.0,N
1543287736.0,286046998.0,N
1543287755.8,286046999.3,N
1543287775.6,286047000.7,N
1543287795.5,286046998.1,N
1543287815.3,286046999.2,N
1543287835.2,286046999.0,N
1543287855.9,286046996.9,N
1543287875.7,286046999.1,N
1543287895.6,286046996.2,N
1543287915.4,286046999.4,N
1543287935.2,286046998.5,N
1543287955.1,286046999.4,N
1543287956.0,286046999.4,N
1543287975.8,286046998.8,N
1543287995.7,286046998.8,N
1543288015.5,286046998.3,N
1543288035.3,286047000.7,N
1543288055.2,286047000.0,N
1543288075.0,286047001.5,N
1543288075.9,286047001.5,N
1543288095.7,286047002.7,N
1543288115.6,286047000.5,N
1543288135.4,286047000.8,N
1543288155.3,286046999.1,N
1543288175.1,286046999.3,N
1543288195.8,286046996.8,N
1543288215.7,286046996.9,N
1543288235.5,286046995.6,N
1543288255.3,286046997.1,N
1543288275.2,286046996.0,N
1543288295.0,286046991.8,Y
1543288295.9,286046991.8,P
1543288315.8,286046993.9,N
1543288335.6,286046997.6,N
1543288355.4,286046994.9,N
1543288375.3,286046998.3,N
1543288395.1,286046998.4,N
1543288415.9,286046998.8,N
1543288435.7,286046999.3,N
1543288455.5,286046998.4,N
1543288475.4,286046998.1,N
1543288495.2,286046996.9,N
1543288515.0,286046996.2,N
1543288515.9,286046996.2,N
1543288535.8,286046994.0,N
1543288555.6,286046991.9,Y
1543288575.5,286046995.2,P
1543288595.3,286046995.2,P
1543288615.1,286046994.5,P
1543288635.9,286046992.3,Y
1543288655.7,286046997.4,P
1543288675.5,286046995.2,P
1543288695.4,286046997.0,P
1543288715.2,286046999.3,N
1543288735.1,286046999.5,N
1543288736.0,286046999.5,N
1543288755.8,286046998.1,N
1543288775.6,286046996.9,N
1543288795.5,286046996.9,N
1543288815.3,286046999.1,N
1543288835.1,286047000.3,N
1543288855.9,286047002.6,N
1543288875.7,286047002.0,N
1543288895.6,286047003.6,N
1543288915.4,286047004.6,N
1543288935.2,286047006.5,N
1543288955.1,286047009.9,Y
1543288956.0,286047009.9,P
1543288975.8,286047008.3,N
1543288995.6,286047008.8,N
1543289015.5,286047008.6,N
1543289035.3,286047006.7,N
1543289055.2,286047006.0,N
1543289075.9,286047002.3,N
1543289095.7,286046999.9,N
1543289115.6,286046999.6,N
1543289135.4,286046996.5,N
1543289155.2,286046996.7,N
1543289175.1,286046996.2,N
1543289176.0,286046996.2,N
1543289195.8,286046994.2,N
1543289215.7,286046991.8,N
1543289235.5,286046990.5,N
1543289255.3,286046992.4,N
1543289275.2,286046994.6,N
1543289295.0,286046994.7,N
1543289295.9,286046994.7,N
1543289315.7,286046997.2,N
1543289335.6,286046998.3,N
1543289355.4,286046997.1,N
1543289375.3,286047000.5,N
1543289395.1,286047000.0,N
1543289415.8,286046999.8,N
1543289435.7,286047000.7,N
1543289455.5,286046999.6,N
1543289475.4,286046998.8,N
1543289495.2,286046997.4,N
1543289515.0,286046997.2,N
1543289515.9,286046997.2,N
1543289535.8,286046999.1,N
1543289555.6,286047000.7,N
1543289575.4,286046999.2,N
1543289595.3,286046998.9,N
1543289615.1,286046999.9,N
1543289635.9,286047002.8,N
1543289655.7,286047000.2,N
1543289675.5,286047001.5,N
1543289695.4,286047001.3,N
1543289715.2,286047002.4,N
1543289735.1,286046999.8,N
1543289736.0,286046999.8,N
1543289755.8,286046998.5,N
1543289775.6,286046996.8,N
1543289795.5,286046999.9,N
1543289815.3,286046999.7,N
1543289835.1,286047002.6,N
1543289855.9,286047001.5,N
1543289875.7,286047000.0,N
1543289895.6,286046997.0,N
1543289915.4,286046995.3,N
1543289935.2,286046999.1,N
1543289955.1,286046999.4,N
1543289956.0,286046999.4,N
1543289975.8,286046997.7,N
1543289995.6,286046997.9,N
1543290015.5,286046995.0,N
1543290035.3,286046998.5,N
1543290055.2,286047004.4,N
1543290075.9,286047005.7,N
1543290095.7,286047003.3,N
1543290115.6,286047005.1,N
1543290135.4,286047001.5,N
1543290155.2,286047002.3,N
1543290175.1,286047001.4,N
1543290176.0,286047001.4,N
1543290195.8,286047002.6,N
1543290215.7,286047005.7,N
1543290235.5,286047007.3,N
1543290255.3,286047007.5,N
1543290275.2,286047008.3,N
1543290295.0,286047010.9,Y
1543290295.9,286047010.9,P
1543290315.8,286047011.2,N
1543290335.6,286047010.3,N
1543290355.4,286047006.6,N
1543290375.3,286047007.6,N
1543290395.1,286047006.8,N
1543290415.8,286047008.7,N
1543290435.7,286047004.8,N
1543290455.5,286047003.0,N
1543290475.4,286047006.0,N
1543290495.2,286047003.4,N
1543290515.0,286047001.0,N
1543290515.9,286047001.0,N
1543290535.8,286046999.8,N
1543290555.6,286047002.8,N
1543290575.4,286047000.8,N
1543290595.3,286046999.0,N
1543290615.1,286046999.2,N
1543290635.9,286046996.5,N
1543290655.7,286046999.0,N
1543290675.5,286046995.1,N
1543290695.4,286046999.1,N
1543290715.2,286046995.4,N
1543290735.0,286046993.6,N
1543290735.9,286046993.6,N
1543290755.8,286046994.8,N
1543290775.6,286046992.8,N
1543290795.4,286046988.7,N
1543290815.3,286046987.3,N
1543290835.1,286046991.2,N
1543290855.9,286046991.2,N
1543290875.7,286046990.8,N
1543290895.5,286046991.7,N
1543290915.4,286046992.1,N
1543290935.2,286046991.9,N
1543290955.0,286046991.9,N
1543290955.9,286046991.9,N
1543290975.8,286046986.3,N
1543290995.6,286046990.4,N
1543291015.5,286046991.6,N
1543291035.3,286046987.3,N
1543291055.1,286046989.9,N
1543291075.9,286046987.9,N
1543291095.7,286046986.3,Y
1543291115.6,286046990.9,P
1543291135.4,286046990.5,P
1543291155.2,286046993.2,P
1543291175.1,286046995.3,Y
1543291176.0,286046995.3,P
1543291195.8,286047004.1,N
